This is the latest recevied weather packets stored in our database for station/object K6GMW. If no packets are shown the sender has not sent any weather packets the latest 10 day(s).
| Time | Temp. | Humidity | Pressure | Rain* | Wind** | Luminosity | Snow |
|---|---|---|---|---|---|---|---|
| 1788205674 | 37.78° C | 36% | 1017 hPa | 0 mm | - | 840 W/m² | - |
| 1788205370 | 37.22° C | 39% | 1016.8 hPa | 0 mm | - | 882 W/m² | - |
| 1788205069 | 36.11° C | 39% | 1017 hPa | 0 mm | - | 894 W/m² | - |
| 1788204765 | 37.22° C | 37% | 1017.2 hPa | 0 mm | - | 220 W/m² | - |
| 1788204465 | 37.22° C | 37% | 1017.2 hPa | 0 mm | - | 904 W/m² | - |
| 1788204160 | 37.22° C | 37% | 1017.4 hPa | 0 mm | - | 926 W/m² | - |
| 1788203856 | 37.78° C | 39% | 1017.4 hPa | 0 mm | - | 927 W/m² | - |
| 1788203552 | 37.22° C | 37% | 1017.4 hPa | 0 mm | - | 723 W/m² | - |
| 1788203253 | 36.11° C | 42% | 1017.5 hPa | 0 mm | - | 922 W/m² | - |
| 1788202947 | 36.11° C | 42% | 1017.5 hPa | 0 mm | - | 944 W/m² | - |
| 1788202647 | 35.56° C | 44% | 1017.5 hPa | 0 mm | - | 314 W/m² | - |
| 1788202343 | 35° C | 44% | 1017.6 hPa | 0 mm | - | 298 W/m² | - |
| 1788202042 | 35.56° C | 43% | 1017.5 hPa | 0 mm | - | 982 W/m² | - |
| 1788201738 | 35.56° C | 43% | 1017.9 hPa | 0 mm | - | 681 W/m² | - |
| 1788201438 | 35.56° C | 43% | 1017.7 hPa | 0 mm | - | 298 W/m² | - |
| 1788201138 | 36.11° C | 42% | 1017.9 hPa | 0 mm | - | 317 W/m² | - |
| 1788200837 | 36.67° C | 42% | 1017.7 hPa | 0 mm | - | 1022 W/m² | - |
| 1788200533 | 36.11° C | 40% | 1017.7 hPa | 0 mm | - | 1033 W/m² | - |
| 1788200232 | 37.22° C | 39% | 1018.1 hPa | 0 mm | - | 1006 W/m² | - |
| 1788199928 | 36.11° C | 42% | 1018.1 hPa | 0 mm | - | 987 W/m² | - |
| 1788199622 | 36.11° C | 41% | 1018 hPa | 0 mm | - | 973 W/m² | - |
| 1788199318 | 36.67° C | 41% | 1018.2 hPa | 0 mm | - | 948 W/m² | - |
| 1788199017 | 36.67° C | 41% | 1018.2 hPa | 0 mm | - | 974 W/m² | - |
| 1788198714 | 35.56° C | 44% | 1018.1 hPa | 0 mm | - | 949 W/m² | - |
| 1788198409 | 35.56° C | 44% | 1018.2 hPa | 0 mm | - | 1003 W/m² | - |
* Rain latest hour (hover to see other rain measurements)
** Current wind speed in m/s (hover to see current wind gust speed)